CAPE
0 0 0 0 0 0 0 0 0 0 0 0 0 0 0 0 0 0 0 0 0 0 0 0 0 0 0 0 1 1 1 0 1 0 0 0 0 0 1 0 0 1 6 12 11 18 42 92 202
0 0 0 0 0 0 0 0 0 0 0 0 0 0 0 0 0 0 0 0 0 0 0 0 0 0 0 0 1 0 0 0 0 0 0 0 0 0 0 0 0 0 0 4 14 11 7 11 173
0 0 0 0 0 0 0 0 0 0 0 0 0 0 0 0 0 0 0 0 0 0 0 0 0 0 0 0 0 0 0 0 0 0 0 0 0 0 0 0 0 0 0 0 5 10 8 4 177
0 0 0 0 0 0 0 0 0 0 0 0 0 0 0 0 0 0 0 0 0 0 0 0 0 0 0 0 0 0 0 0 0 0 0 0 0 0 0 0 0 0 0 0 0 6 7 6 7
0 0 0 0 0 0 0 0 0 0 0 0 0 0 0 0 0 0 0 0 0 0 0 0 0 0 0 0 0 0 0 0 0 0 0 0 0 0 0 0 0 0 0 0 0 0 5 8 8
0 0 0 0 0 0 0 0 0 0 0 0 0 0 0 0 0 0 0 0 0 0 0 0 0 0 0 0 0 0 0 0 0 0 0 0 0 0 0 0 0 0 0 0 0 0 1 3 5
0 0 0 0 0 0 0 0 0 0 0 0 0 0 0 0 0 0 0 0 0 0 0 0 0 0 0 0 0 0 0 0 0 0 0 0 0 0 0 0 0 0 0 0 0 0 0 3 4
0 0 0 0 0 0 0 0 0 0 0 0 0 0 0 0 0 0 0 0 0 0 0 0 0 0 0 0 0 0 0 0 0 0 0 0 0 0 0 0 0 0 0 0 0 0 0 0 5
0 0 0 0 0 0 0 0 0 0 0 0 0 0 0 0 0 0 0 0 0 0 0 0 0 0 0 0 0 0 0 0 0 0 0 0 0 0 0 0 0 0 0 0 0 0 0 0 0
0 0 0 0 0 0 0 0 0 0 0 0 0 0 0 0 0 0 0 0 0 0 0 0 0 0 0 0 0 0 0 0 0 0 0 0 0 0 0 0 0 0 0 0 0 0 0 0 0
0 0 0 0 0 0 0 0 0 0 0 0 0 0 0 0 0 0 0 0 0 0 0 0 0 0 0 0 0 0 0 0 0 0 0 0 0 0 0 0 0 0 0 0 0 0 0 0 0
0 0 0 0 0 0 0 0 0 0 0 0 0 0 0 0 0 0 0 0 0 0 0 0 0 0 0 0 0 0 0 0 0 0 0 0 0 0 0 0 0 0 0 0 0 0 0 0 0
0 0 0 0 0 0 0 0 0 0 0 0 0 0 0 0 0 0 0 0 0 0 0 0 0 0 0 0 0 0 0 0 0 0 0 0 0 0 0 0 0 0 0 0 0 0 0 0 0
0 0 0 0 0 0 0 0 0 0 0 0 0 0 0 0 0 0 0 0 0 0 0 0 0 0 0 0 0 0 0 0 0 0 0 0 0 0 0 0 0 0 0 0 0 0 0 0 0
0 0 0 0 0 0 0 0 0 0 0 0 0 0 0 0 0 0 0 0 0 0 0 0 0 0 0 0 0 0 0 0 0 0 0 0 0 0 0 0 0 0 0 0 0 0 0 0 0
0 0 0 0 0 0 0 0 0 0 0 0 0 0 0 0 0 0 0 0 0 0 0 0 0 0 0 0 0 0 0 0 0 0 0 0 0 0 0 0 0 0 0 0 0 0 0 0 0
0 0 0 0 0 0 0 0 0 0 0 0 0 0 0 0 0 0 0 0 0 0 0 0 0 0 0 0 0 0 0 0 0 0 0 0 0 0 0 0 0 0 0 0 0 0 0 0 0
0 0 0 0 0 0 0 0 0 0 0 0 0 0 0 0 0 0 0 0 0 0 0 0 0 0 0 0 0 0 0 0 0 0 0 0 0 0 0 0 0 0 0 0 0 0 0 0 0
0 0 0 0 0 0 0 0 0 0 0 0 0 0 0 0 0 0 0 0 0 0 0 0 0 0 0 0 0 0 0 0 0 0 0 0 0 0 0 0 0 0 0 0 0 0 0 0 0
0 0 0 0 0 0 0 0 0 0 0 0 0 0 0 0 0 0 0 0 0 0 0 0 0 0 0 0 0 0 0 0 0 0 0 0 0 0 0 0 0 0 0 0 0 0 0 0 0
0 0 0 0 0 0 0 0 0 0 0 0 0 0 0 0 0 0 0 0 0 0 0 0 0 0 0 0 0 0 0 0 0 0 0 0 0 0 0 0 0 0 0 0 0 0 0 0 0
0 0 0 0 0 0 0 0 0 0 0 0 0 0 0 0 0 0 0 0 0 0 0 0 0 0 0 0 0 0 0 0 0 0 0 0 0 0 0 0 0 0 0 0 0 0 0 0 0
0 0 0 0 0 0 0 0 0 0 0 0 0 0 0 0 0 0 0 0 0 0 0 0 0 0 0 0 0 0 0 0 0 0 0 0 0 0 0 0 0 0 0 0 0 0 0 0 0
0 0 0 0 0 0 0 0 0 0 0 0 0 0 0 0 0 0 0 0 0 0 0 0 0 0 0 0 0 0 0 0 0 0 0 0 0 0 0 0 0 0 0 0 0 0 0 0 0
0 0 0 0 0 0 0 0 0 0 0 0 0 0 0 0 0 0 0 0 0 0 0 0 0 0 0 0 0 0 0 0 0 0 0 0 0 0 0 0 0 0 0 0 0 0 0 0 0
0 0 0 0 0 0 0 0 0 0 0 0 0 0 0 0 0 0 0 0 0 0 0 0 0 0 0 0 0 0 0 0 0 0 0 0 0 0 0 0 0 0 0 0 0 0 0 0 0
0 0 0 0 0 0 0 0 0 0 0 0 0 0 0 0 0 0 0 0 0 0 0 0 0 0 0 0 0 0 0 0 0 0 0 0 0 0 0 0 0 0 0 0 0 0 0 0 0
0 0 0 0 0 0 0 0 0 0 0 0 0 0 0 0 0 0 0 0 0 0 0 0 0 0 0 0 0 0 0 0 0 0 0 0 0 0 0 0 0 0 0 0 0 0 0 0 0
0 0 0 0 0 0 0 0 0 0 0 0 0 0 0 0 0 0 0 0 0 0 0 0 0 0 0 0 0 0 0 0 0 0 0 0 0 0 0 0 0 0 0 0 0 0 0 0 0
0 0 0 0 0 0 0 0 0 0 0 0 0 0 0 0 0 0 0 0 0 0 0 0 0 0 0 0 0 0 0 0 0 0 0 0 0 0 0 0 0 0 0 0 0 0 0 0 0
CIN
-0 -0 -0 -0 -0 -0 -0 -0 -0 -0 -0 -0 -0 -0 -0 -0 -0 -0 -0 -0 -0 -0 -0 -0 -0 -0 -0 -1 -0 -0 -0 -0 -0 -1 -0 -0 -0 -0 -1 -0 -0 -0 -0 -0 -0 -49 -23 -16 -2
-0 -0 -0 -0 -0 -0 -0 -0 -0 -0 -0 -0 -0 -0 -0 -0 -0 -0 -0 -0 -0 -0 -0 -0 -0 -0 -0 -0 -1 -1 -0 -0 -0 -0 -0 -0 -0 -0 -0 -0 -0 -0 -0 -0 -0 -0 -0 -54 -0
-0 -0 -0 -0 -0 -0 -0 -0 -0 -0 -0 -0 -0 -0 -0 -0 -0 -0 -0 -0 -0 -0 -0 -0 -0 -0 -0 -0 -0 -0 -0 -0 -0 -0 -0 -0 -0 -0 -0 -0 -0 -0 -0 -0 -0 -0 -0 -0 -3
-0 -0 -0 -0 -0 -0 -0 -0 -0 -0 -0 -0 -0 -0 -0 -0 -0 -0 -0 -0 -0 -0 -0 -0 -0 -0 -0 -0 -0 -0 -0 -0 -0 -0 -0 -0 -0 -0 -0 -0 -0 -0 -0 -0 -0 -0 -0 -0 -1
-0 -0 -0 -0 -0 -0 -0 -0 -0 -0 -0 -0 -0 -0 -0 -0 -0 -0 -0 -0 -0 -0 -0 -0 -0 -0 -0 -0 -0 -0 -0 -0 -0 -0 -0 -0 -0 -0 -0 -0 -0 -0 -0 -0 -0 -0 -0 -0 -0
-0 -0 -0 -0 -0 -0 -0 -0 -0 -0 -0 -0 -0 -0 -0 -0 -0 -0 -0 -0 -0 -0 -0 -0 -0 -0 -0 -0 -0 -0 -0 -0 -0 -0 -0 -0 -0 -0 -0 -0 -0 -0 -0 -0 -0 -0 -0 -0 -0
-0 -0 -0 -0 -0 -0 -0 -0 -0 -0 -0 -0 -0 -0 -0 -0 -0 -0 -0 -0 -0 -0 -0 -0 -0 -0 -0 -0 -0 -0 -0 -0 -0 -0 -0 -0 -0 -0 -0 -0 -0 -0 -0 -0 -0 -0 -0 -0 -0
-0 -0 -0 -0 -0 -0 -0 -0 -0 -0 -0 -0 -0 -0 -0 -0 -0 -0 -0 -0 -0 -0 -0 -0 -0 -0 -0 -0 -0 -0 -0 -0 -0 -0 -0 -0 -0 -0 -0 -0 -0 -0 -0 -0 -0 -0 -0 -0 -0
-0 -0 -0 -0 -0 -0 -0 -0 -0 -0 -0 -0 -0 -0 -0 -0 -0 -0 -0 -0 -0 -0 -0 -0 -0 -0 -0 -0 -0 -0 -0 -0 -0 -0 -0 -0 -0 -0 -0 -0 -0 -0 -0 -0 -0 -0 -0 -0 -0
-0 -0 -0 -0 -0 -0 -0 -0 -0 -0 -0 -0 -0 -0 -0 -0 -0 -0 -0 -0 -0 -0 -0 -0 -0 -0 -0 -0 -0 -0 -0 -0 -0 -0 -0 -0 -0 -0 -0 -0 -0 -0 -0 -0 -0 -0 -0 -0 -0
-0 -0 -0 -0 -0 -0 -0 -0 -0 -0 -0 -0 -0 -0 -0 -0 -0 -0 -0 -0 -0 -0 -0 -0 -0 -0 -0 -0 -0 -0 -0 -0 -0 -0 -0 -0 -0 -0 -0 -0 -0 -0 -0 -0 -0 -0 -0 -0 -0
-0 -0 -0 -0 -0 -0 -0 -0 -0 -0 -0 -0 -0 -0 -0 -0 -0 -0 -0 -0 -0 -0 -0 -0 -0 -0 -0 -0 -0 -0 -0 -0 -0 -0 -0 -0 -0 -0 -0 -0 -0 -0 -0 -0 -0 -0 -0 -0 -0
-0 -0 -0 -0 -0 -0 -0 -0 -0 -0 -0 -0 -0 -0 -0 -0 -0 -0 -0 -0 -0 -0 -0 -0 -0 -0 -0 -0 -0 -0 -0 -0 -0 -0 -0 -0 -0 -0 -0 -0 -0 -0 -0 -0 -0 -0 -0 -0 -0
-0 -0 -0 -0 -0 -0 -0 -0 -0 -0 -0 -0 -0 -0 -0 -0 -0 -0 -0 -0 -0 -0 -0 -0 -0 -0 -0 -0 -0 -0 -0 -0 -0 -0 -0 -0 -0 -0 -0 -0 -0 -0 -0 -0 -0 -0 -0 -0 -0
-0 -0 -0 -0 -0 -0 -0 -0 -0 -0 -0 -0 -0 -0 -0 -0 -0 -0 -0 -0 -0 -0 -0 -0 -0 -0 -0 -0 -0 -0 -0 -0 -0 -0 -0 -0 -0 -0 -0 -0 -0 -0 -0 -0 -0 -0 -0 -0 -0
-0 -0 -0 -0 -0 -0 -0 -0 -0 -0 -0 -0 -0 -0 -0 -0 -0 -0 -0 -0 -0 -0 -0 -0 -0 -0 -0 -0 -0 -0 -0 -0 -0 -0 -0 -0 -0 -0 -0 -0 -0 -0 -0 -0 -0 -0 -0 -0 -0
-0 -0 -0 -0 -0 -0 -0 -0 -0 -0 -0 -0 -0 -0 -0 -0 -0 -0 -0 -0 -0 -0 -0 -0 -0 -0 -0 -0 -0 -0 -0 -0 -0 -0 -0 -0 -0 -0 -0 -0 -0 -0 -0 -0 -0 -0 -0 -0 -0
-0 -0 -0 -0 -0 -0 -0 -0 -0 -0 -0 -0 -0 -0 -0 -0 -0 -0 -0 -0 -0 -0 -0 -0 -0 -0 -0 -0 -0 -0 -0 -0 -0 -0 -0 -0 -0 -0 -0 -0 -0 -0 -0 -0 -0 -0 -0 -0 -0
-0 -0 -0 -0 -0 -0 -0 -0 -0 -0 -0 -0 -0 -0 -0 -0 -0 -0 -0 -0 -0 -0 -0 -0 -0 -0 -0 -0 -0 -0 -0 -0 -0 -0 -0 -0 -0 -0 -0 -0 -0 -0 -0 -0 -0 -0 -0 -0 -0
-0 -0 -0 -0 -0 -0 -0 -0 -0 -0 -0 -0 -0 -0 -0 -0 -0 -0 -0 -0 -0 -0 -0 -0 -0 -0 -0 -0 -0 -0 -0 -0 -0 -0 -0 -0 -0 -0 -0 -0 -0 -0 -0 -0 -0 -0 -0 -0 -0
-0 -0 -0 -0 -0 -0 -0 -0 -0 -0 -0 -0 -0 -0 -0 -0 -0 -0 -0 -0 -0 -0 -0 -0 -0 -0 -0 -0 -0 -0 -0 -0 -0 -0 -0 -0 -0 -0 -0 -0 -0 -0 -0 -0 -0 -0 -0 -0 -0
-0 -0 -0 -0 -0 -0 -0 -0 -0 -0 -0 -0 -0 -0 -0 -0 -0 -0 -0 -0 -0 -0 -0 -0 -0 -0 -0 -0 -0 -0 -0 -0 -0 -0 -0 -0 -0 -0 -0 -0 -0 -0 -0 -0 -0 -0 -0 -0 -0
-0 -0 -0 -0 -0 -0 -0 -0 -0 -0 -0 -0 -0 -0 -0 -0 -0 -0 -0 -0 -0 -0 -0 -0 -0 -0 -0 -0 -0 -0 -0 -0 -0 -0 -0 -0 -0 -0 -0 -0 -0 -0 -0 -0 -0 -0 -0 -0 -0
-0 -0 -0 -0 -0 -0 -0 -0 -0 -0 -0 -0 -0 -0 -0 -0 -0 -0 -0 -0 -0 -0 -0 -0 -0 -0 -0 -0 -0 -0 -0 -0 -0 -0 -0 -0 -0 -0 -0 -0 -0 -0 -0 -0 -0 -0 -0 -0 -0
-0 -0 -0 -0 -0 -0 -0 -0 -0 -0 -0 -0 -0 -0 -0 -0 -0 -0 -0 -0 -0 -0 -0 -0 -0 -0 -0 -0 -0 -0 -0 -0 -0 -0 -0 -0 -0 -0 -0 -0 -0 -0 -0 -0 -0 -0 -0 -0 -0
-0 -0 -0 -0 -0 -0 -0 -0 -0 -0 -0 -0 -0 -0 -0 -0 -0 -0 -0 -0 -0 -0 -0 -0 -0 -0 -0 -0 -0 -0 -0 -0 -0 -0 -0 -0 -0 -0 -0 -0 -0 -0 -0 -0 -0 -0 -0 -0 -0
-0 -0 -0 -0 -0 -0 -0 -0 -0 -0 -0 -0 -0 -0 -0 -0 -0 -0 -0 -0 -0 -0 -0 -0 -0 -0 -0 -0 -0 -0 -0 -0 -0 -0 -0 -0 -0 -0 -0 -0 -0 -0 -0 -0 -0 -0 -0 -0 -0
-0 -0 -0 -0 -0 -0 -0 -0 -0 -0 -0 -0 -0 -0 -0 -0 -0 -0 -0 -0 -0 -0 -0 -0 -0 -0 -0 -0 -0 -0 -0 -0 -0 -0 -0 -0 -0 -0 -0 -0 -0 -0 -0 -0 -0 -0 -0 -0 -0
-0 -0 -0 -0 -0 -0 -0 -0 -0 -0 -0 -0 -0 -0 -0 -0 -0 -0 -0 -0 -0 -0 -0 -0 -0 -0 -0 -0 -0 -0 -0 -0 -0 -0 -0 -0 -0 -0 -0 -0 -0 -0 -0 -0 -0 -0 -0 -0 -0
-0 -0 -0 -0 -0 -0 -0 -0 -0 -0 -0 -0 -0 -0 -0 -0 -0 -0 -0 -0 -0 -0 -0 -0 -0 -0 -0 -0 -0 -0 -0 -0 -0 -0 -0 -0 -0 -0 -0 -0 -0 -0 -0 -0 -0 -0 -0 -0 -0
Wind_Speed
14 14 16 12 15 16 14 13 14 14 15 15 16 16 17 17 17 17 15 15 15 18 21 23 24 26 27 28 29 29 30 31 32 33 33 33 33 33 33 33 33 31 30 30 30 29 29 28 25
15 12 14 15 16 16 14 13 13 14 14 15 16 17 16 16 16 16 15 13 14 17 19 21 22 24 25 26 28 29 30 31 31 33 33 33 33 34 34 34 34 33 31 31 30 30 30 29 28
13 14 14 16 16 15 15 12 12 14 15 15 16 16 16 16 15 14 14 14 15 17 19 19 21 22 23 25 27 28 29 30 32 33 33 33 34 34 35 35 35 34 33 31 31 30 30 29 27
13 14 16 16 16 15 15 12 12 13 15 15 16 15 15 15 15 14 14 14 15 17 18 19 20 21 21 24 26 28 29 30 32 32 33 34 34 35 35 36 36 35 34 32 31 31 30 30 27
14 15 15 16 15 14 13 12 12 12 13 14 14 15 16 15 14 14 14 14 14 16 17 18 19 20 20 22 25 28 29 30 31 32 33 34 35 35 36 36 37 37 36 34 32 31 31 31 30
14 14 16 16 13 13 12 11 12 11 13 13 14 15 15 15 13 13 13 13 14 15 17 17 19 19 20 21 23 26 29 30 31 32 33 34 35 35 36 37 38 37 37 36 34 32 32 33 32
13 14 14 14 11 11 10 10 10 10 11 12 14 15 16 12 11 12 12 13 13 14 16 16 17 18 19 20 21 23 26 30 31 32 33 34 35 35 36 37 38 38 38 37 36 34 34 34 34
13 14 13 12 9 12 10 10 13 11 11 14 12 14 15 13 10 12 13 13 13 13 13 13 15 16 18 19 20 21 23 27 30 32 32 34 35 36 36 38 39 40 39 38 37 35 35 35 35
14 15 13 12 11 12 9 11 13 16 14 12 11 12 15 13 11 12 13 14 14 12 11 12 13 14 17 18 19 21 22 26 28 31 32 33 34 36 36 38 40 41 40 39 38 36 35 35 35
16 16 15 14 13 12 9 12 12 14 13 12 11 13 13 11 10 11 11 14 13 12 13 13 12 13 15 18 19 20 21 23 26 28 30 32 33 34 35 38 40 41 40 39 38 37 36 34 34
17 16 13 14 13 13 11 14 15 15 15 11 9 7 9 9 9 10 11 13 15 14 15 15 13 13 13 16 19 19 20 22 25 28 29 32 33 35 36 38 39 40 40 38 37 35 35 36 36
15 15 14 12 14 13 13 16 17 13 16 18 10 6 7 8 8 10 11 12 16 15 14 16 16 15 14 16 18 19 20 21 24 26 29 31 32 34 37 38 39 39 39 40 36 36 34 37 37
15 13 14 14 15 16 16 17 19 16 14 15 10 6 6 7 8 10 11 12 15 16 16 16 17 15 16 16 18 19 21 21 22 26 28 30 32 33 35 37 38 38 37 38 38 35 36 37 38
15 14 15 16 17 19 20 20 21 17 14 9 7 6 6 6 7 11 12 14 16 18 19 18 18 18 18 18 18 20 21 21 21 24 27 30 32 33 35 38 39 38 35 35 35 34 35 30 40
15 17 17 19 23 19 23 21 15 15 12 8 6 6 5 4 6 8 11 14 16 18 20 19 20 20 19 20 21 22 22 23 22 23 25 28 31 32 34 36 39 39 37 35 35 35 32 32 40
18 17 21 19 24 21 24 22 15 15 13 10 5 4 2 2 3 7 9 12 15 17 19 20 22 22 22 23 24 24 24 24 23 23 25 27 28 28 33 36 39 39 39 36 36 36 34 34 40
22 21 23 24 22 25 23 25 19 16 20 14 7 3 2 1 4 6 9 11 15 18 19 21 23 23 24 24 24 25 25 24 24 24 26 27 28 28 32 34 38 39 39 38 37 34 32 35 39
23 24 24 24 25 27 32 24 30 28 17 10 5 1 2 1 2 7 9 12 15 19 22 23 24 26 25 25 25 26 26 25 25 26 27 27 26 28 31 34 38 38 37 37 37 35 32 32 36
22 23 26 23 24 32 27 37 37 23 15 10 2 1 2 1 6 8 10 13 17 21 24 26 28 28 27 27 27 27 28 29 28 29 28 27 27 28 31 34 36 38 37 34 35 35 34 32 32
25 27 27 26 23 32 31 38 21 17 16 13 2 1 1 3 5 8 10 14 19 23 27 29 30 30 28 26 26 26 28 28 28 29 29 28 28 29 31 34 35 37 36 35 33 33 34 29 26
28 24 28 31 35 24 31 24 16 15 16 16 10 3 3 2 4 8 11 16 21 25 30 32 33 34 32 29 27 27 27 28 30 32 31 29 30 31 33 33 34 33 33 34 34 33 33 32 26
31 24 30 32 33 28 25 25 17 16 16 16 13 7 4 4 6 9 13 17 23 28 30 32 37 38 36 31 28 28 28 31 31 33 32 32 32 33 33 32 31 31 31 33 34 34 31 31 31
27 31 32 28 26 26 23 21 19 16 15 14 13 9 8 9 10 12 16 20 24 27 29 34 38 39 37 34 29 29 29 30 31 33 34 35 34 33 33 32 29 29 31 32 35 35 33 32 32
27 31 29 24 23 22 20 21 20 15 14 10 10 8 9 12 14 16 19 22 26 28 30 35 38 39 38 36 32 30 30 33 36 36 37 36 35 34 33 31 27 27 31 32 34 34 35 33 34
33 31 31 26 26 24 21 24 21 18 16 8 6 8 11 14 17 20 24 27 28 30 32 36 38 39 39 38 34 31 32 34 36 37 37 38 36 35 33 31 27 26 31 32 33 35 35 34 34
29 27 26 29 28 30 26 23 21 16 15 8 8 10 14 19 21 23 25 26 27 29 33 37 37 39 39 37 33 32 34 35 36 37 38 36 35 34 33 29 26 25 29 33 34 36 36 35 34
26 27 22 25 25 29 22 23 21 18 12 10 10 12 16 19 22 25 26 26 29 31 35 37 36 38 37 35 33 35 36 38 38 38 36 35 33 33 32 28 27 27 30 33 34 35 37 36 35
24 20 25 24 31 35 30 30 26 17 13 12 12 15 17 20 23 25 26 29 31 33 35 35 35 37 37 35 34 37 38 38 39 37 37 35 34 33 32 28 27 28 29 31 34 35 35 37 35
25 23 20 23 26 31 38 30 22 21 14 12 13 15 19 22 25 28 30 32 33 35 36 36 37 38 38 35 37 38 38 40 39 38 36 35 34 33 31 27 27 28 29 30 35 36 36 37 37
20 19 20 30 30 28 33 41 24 25 18 17 15 17 22 28 28 32 34 34 36 39 39 38 38 39 37 37 39 38 40 40 39 38 37 35 34 32 31 27 27 29 29 30 35 37 37 36 36
Wind_Direction
237 226 90 6 11 358 32 52 16 32 24 29 29 40 39 42 40 35 60 55 48 33 21 17 14 14 12 8 5 2 360 0 1 359 357 351 350 348 346 347 342 326 313 308 310 311 305 300 281
242 330 12 10 352 356 14 36 41 21 32 40 29 28 36 36 48 49 56 61 56 40 32 28 27 23 19 14 5 1 0 0 359 358 358 352 349 347 345 347 343 332 319 306 304 305 306 300 280
9 355 8 354 358 2 6 37 39 30 30 26 23 32 39 28 48 60 55 62 56 39 35 34 31 28 29 17 8 3 359 358 358 358 355 351 348 346 346 347 340 338 326 311 303 301 301 299 288
360 1 1 352 351 360 9 41 33 33 12 13 25 28 29 35 45 59 58 59 49 38 37 35 33 32 32 24 12 4 359 358 357 356 352 349 345 345 343 345 338 337 333 318 304 296 296 294 292
345 355 355 348 354 3 17 34 42 29 21 21 24 24 15 24 41 52 55 52 48 41 38 33 35 31 32 27 16 2 358 355 354 351 350 348 344 341 342 342 337 337 331 328 307 299 290 290 286
346 354 343 343 1 12 16 31 29 29 17 19 17 24 12 20 43 52 56 57 51 42 36 35 31 32 30 28 19 6 355 352 350 350 347 344 341 341 341 340 340 335 332 329 316 300 292 284 281
347 349 349 353 13 18 29 39 28 34 21 15 25 20 13 28 46 46 55 56 55 45 38 38 36 31 28 28 25 20 6 353 348 347 346 343 340 340 339 340 339 334 332 329 323 303 294 284 278
347 347 350 356 11 5 16 24 5 13 15 10 27 19 13 23 56 40 36 45 51 50 47 45 38 31 26 25 24 21 15 5 353 349 348 343 340 338 338 339 333 333 330 327 324 308 295 287 276
343 335 345 348 357 357 6 357 350 340 353 6 23 18 11 27 48 39 30 32 34 41 44 43 35 32 25 22 23 19 16 7 359 352 352 349 344 340 339 335 332 330 329 326 324 310 299 290 280
331 331 335 339 343 352 2 344 350 344 351 353 2 3 17 39 43 53 50 28 38 41 30 27 32 28 25 18 18 18 15 10 2 357 353 350 349 347 344 337 331 327 328 328 321 314 302 293 284
331 331 344 340 347 351 350 338 338 343 342 349 0 15 36 37 43 45 44 37 26 37 32 27 26 23 23 17 13 14 14 9 2 356 353 349 348 343 343 340 337 331 328 327 324 323 307 295 287
336 340 341 350 346 345 341 333 331 336 338 339 357 37 44 49 39 42 44 39 21 31 34 26 21 17 16 12 9 8 7 5 1 355 352 349 349 346 343 341 339 337 332 326 329 318 318 296 288
342 346 344 347 345 339 334 328 327 329 332 338 1 31 42 40 36 35 39 44 29 25 30 27 20 18 9 6 4 2 359 0 358 352 349 348 347 347 346 344 342 340 338 331 325 324 311 303 290
346 346 341 337 335 331 328 327 326 332 339 351 6 15 19 31 37 26 35 34 34 20 23 24 19 13 9 3 0 358 358 358 356 352 347 344 343 343 343 341 339 340 341 337 332 328 312 314 288
350 336 334 330 325 331 329 325 330 332 345 350 351 351 359 12 19 32 28 30 29 21 17 19 16 12 8 1 356 354 352 354 353 350 347 344 342 341 342 340 338 337 336 335 330 325 321 314 293
349 344 329 331 326 330 326 321 329 330 336 335 327 319 324 357 26 18 21 22 22 19 14 11 8 5 2 358 354 353 352 351 351 350 347 345 344 344 342 341 338 336 332 331 328 324 321 314 298
347 338 331 326 332 324 325 317 321 326 320 319 314 241 211 299 342 358 6 12 12 10 7 3 2 359 356 356 355 355 353 352 351 350 347 344 342 342 340 340 338 335 330 327 324 324 321 313 300
346 339 333 330 324 321 309 304 306 310 321 326 309 276 204 224 320 346 354 360 1 2 0 359 356 352 350 350 351 352 353 353 352 348 346 345 344 342 340 339 337 334 332 327 323 320 317 316 303
351 342 332 334 330 317 321 293 286 315 332 340 336 197 210 236 335 336 346 352 354 355 355 353 351 349 348 346 345 347 349 351 351 349 348 348 345 343 340 338 335 332 330 328 322 318 311 310 311
348 336 330 329 335 322 317 292 319 330 337 344 331 270 291 323 345 346 346 348 350 351 352 351 351 350 348 345 343 345 346 348 348 347 348 348 346 342 339 336 334 330 328 324 320 313 307 307 314
345 339 331 324 320 331 317 320 325 336 341 347 353 332 329 341 351 346 344 344 347 348 347 349 350 348 347 345 343 342 344 346 347 346 346 347 345 341 338 335 333 331 327 320 314 304 300 295 303
342 345 333 325 322 322 331 320 324 329 333 345 352 359 357 350 348 347 345 344 343 343 346 349 346 343 344 345 343 342 342 341 345 343 344 343 342 340 338 336 334 331 326 317 308 298 294 290 286
344 336 331 331 329 326 327 323 327 331 332 340 350 0 8 6 358 351 344 341 342 343 344 345 344 343 343 343 342 341 340 341 342 342 341 340 341 340 338 336 335 332 325 315 303 293 288 285 279
351 341 337 340 337 332 335 328 330 332 331 336 348 4 2 0 353 347 344 341 340 341 343 343 343 342 342 342 342 341 340 340 340 339 339 339 339 339 338 337 334 331 322 314 302 293 284 281 271
348 346 336 334 331 330 342 330 325 335 340 340 353 358 353 353 348 345 340 339 338 340 342 342 341 340 340 341 342 342 341 340 339 338 338 338 339 339 338 337 333 330 319 313 303 291 282 277 270
344 350 344 332 332 325 331 330 338 349 350 5 357 352 347 341 341 341 339 339 338 339 340 341 339 338 339 341 342 342 340 339 338 338 337 338 338 338 338 337 334 329 320 310 301 289 280 274 271
345 341 348 336 335 330 337 336 336 343 345 339 338 337 338 340 339 337 336 337 337 337 337 338 337 337 338 339 340 339 338 337 337 337 338 338 340 340 340 338 334 328 319 309 298 287 277 272 268
345 352 338 340 330 325 326 323 326 339 326 319 318 327 334 337 338 337 337 335 336 335 335 336 336 336 337 337 338 336 336 336 337 338 338 339 340 340 340 338 334 327 320 309 294 284 277 270 269
337 337 343 340 332 326 323 324 345 337 322 310 313 326 332 332 333 334 334 333 333 334 333 333 334 333 334 335 333 333 334 335 336 337 337 338 339 340 340 338 334 326 320 309 291 278 275 270 266
338 337 337 329 326 323 320 314 336 332 325 313 301 311 323 332 329 330 329 331 331 332 331 331 331 331 331 331 331 331 332 333 335 336 337 337 338 339 339 338 332 324 318 309 290 276 272 270 266